GFSNW_prec_precacc24_297.txt.gz
Total_Precipitation_Accumulation
0.04 0.05 0.06 0.08 0.11 0.15 0.11 0.08 0.09 0.02 0.03 0.18 0.36 0.44 0.38 0.12 0.03 0.03 0.13 0.12 0.15 0.16 0.13 0.16 0.12 0.07 0.11 0.15 0.25 0.12 0.22 0.30 0.14 0.06 0.01 0.00 0.00 0.00 0.00 0.00 0.00 0.00 0.00 0.00
0.06 0.07 0.08 0.11 0.15 0.28 0.34 0.46 0.09 0.00 0.06 0.18 0.20 0.29 0.22 0.23 0.19 0.14 0.28 0.26 0.24 0.18 0.15 0.37 0.17 0.26 0.21 0.12 0.15 0.27 0.24 0.39 0.28 0.20 0.19 0.06 0.01 0.01 0.00 0.00 0.00 0.00 0.00 0.00
0.09 0.09 0.11 0.12 0.15 0.28 0.42 0.50 0.22 0.01 0.05 0.14 0.37 0.46 0.20 0.16 0.16 0.32 0.22 0.28 0.29 0.29 0.21 0.21 0.42 0.30 0.36 0.31 0.20 0.27 0.61 0.35 0.16 0.16 0.21 0.23 0.17 0.04 0.01 0.00 0.00 0.00 0.00 0.00
0.09 0.11 0.10 0.12 0.19 0.36 0.52 0.58 0.27 0.08 0.12 0.08 0.25 0.36 0.32 0.18 0.30 0.22 0.27 0.25 0.20 0.35 0.43 0.20 0.24 0.28 0.28 0.23 0.44 0.35 0.47 0.25 0.10 0.03 0.01 0.03 0.06 0.14 0.05 0.03 0.01 0.00 0.00 0.00
0.09 0.12 0.11 0.13 0.22 0.35 0.47 0.55 0.44 0.36 0.13 0.03 0.09 0.18 0.21 0.15 0.34 0.29 0.29 0.30 0.17 0.17 0.33 0.35 0.30 0.25 0.25 0.30 0.38 0.47 0.48 0.31 0.24 0.16 0.06 0.05 0.09 0.12 0.13 0.06 0.02 0.01 0.01 0.00
0.10 0.14 0.15 0.15 0.23 0.46 0.83 0.56 0.49 0.66 0.25 0.03 0.10 0.09 0.16 0.18 0.18 0.11 0.10 0.12 0.20 0.09 0.08 0.09 0.06 0.07 0.29 0.43 0.34 0.39 0.55 0.50 0.53 0.32 0.17 0.24 0.26 0.21 0.19 0.23 0.29 0.22 0.17 0.08
0.12 0.16 0.17 0.19 0.23 0.48 0.78 0.76 0.70 0.78 0.30 0.04 0.04 0.05 0.09 0.07 0.04 0.12 0.01 0.02 0.12 0.04 0.02 0.05 0.02 0.06 0.28 0.32 0.34 0.30 0.36 0.42 0.49 0.68 0.65 0.98 0.60 0.26 0.31 0.28 0.28 0.31 0.19 0.05
0.11 0.14 0.17 0.19 0.23 0.36 0.61 0.63 0.69 0.72 0.35 0.03 0.01 0.05 0.05 0.00 0.00 0.01 0.01 0.00 0.01 0.01 0.05 0.15 0.16 0.16 0.17 0.11 0.14 0.26 0.41 0.43 0.54 0.69 0.81 0.85 0.51 0.42 0.50 0.45 0.39 0.28 0.23 0.09
0.12 0.15 0.17 0.19 0.24 0.34 0.55 0.63 0.52 0.78 0.58 0.07 0.03 0.04 0.01 0.02 0.02 0.01 0.00 0.00 0.01 0.07 0.21 0.38 0.42 0.31 0.23 0.19 0.08 0.04 0.12 0.39 0.76 0.85 0.78 0.66 0.52 0.59 0.64 0.31 0.32 0.29 0.22 0.14
0.15 0.17 0.17 0.16 0.23 0.39 0.49 0.39 0.34 0.57 0.60 0.04 0.00 0.03 0.03 0.02 0.05 0.05 0.01 0.03 0.04 0.10 0.23 0.35 0.31 0.25 0.18 0.29 0.31 0.23 0.20 0.28 0.56 0.59 0.66 0.50 0.43 0.38 0.58 0.65 0.54 0.36 0.38 0.24
0.16 0.15 0.17 0.24 0.30 0.29 0.37 0.28 0.23 0.55 0.60 0.07 0.00 0.00 0.01 0.02 0.03 0.08 0.04 0.10 0.03 0.11 0.28 0.41 0.28 0.30 0.28 0.22 0.30 0.50 0.45 0.45 0.43 0.49 0.73 0.50 0.21 0.23 0.53 0.65 0.35 0.35 0.34 0.34
0.14 0.13 0.16 0.19 0.22 0.21 0.32 0.26 0.12 0.24 0.49 0.12 0.00 0.00 0.00 0.00 0.00 0.05 0.08 0.12 0.09 0.18 0.27 0.41 0.50 0.44 0.32 0.32 0.29 0.27 0.57 0.67 0.77 0.60 0.72 0.64 0.50 0.61 0.61 0.44 0.25 0.15 0.16 0.21
0.07 0.08 0.12 0.18 0.16 0.16 0.28 0.28 0.17 0.23 0.35 0.14 0.01 0.00 0.00 0.00 0.00 0.00 0.11 0.04 0.05 0.06 0.15 0.33 0.37 0.37 0.34 0.22 0.16 0.18 0.29 0.33 0.26 0.25 0.20 0.12 0.34 0.32 0.23 0.26 0.24 0.18 0.12 0.11
0.04 0.05 0.10 0.13 0.14 0.20 0.31 0.30 0.26 0.43 0.60 0.30 0.01 0.00 0.00 0.00 0.00 0.00 0.01 0.01 0.03 0.11 0.21 0.47 0.44 0.28 0.18 0.16 0.14 0.17 0.11 0.06 0.05 0.05 0.05 0.03 0.09 0.07 0.13 0.11 0.12 0.13 0.10 0.11
0.03 0.06 0.12 0.14 0.16 0.25 0.38 0.42 0.38 0.42 0.59 0.45 0.02 0.00 0.00 0.00 0.00 0.00 0.00 0.00 0.02 0.09 0.35 0.47 0.30 0.16 0.17 0.16 0.13 0.12 0.09 0.12 0.10 0.04 0.02 0.08 0.03 0.02 0.04 0.02 0.02 0.04 0.07 0.12
0.05 0.05 0.03 0.03 0.08 0.14 0.08 0.04 0.01 0.03 0.11 0.34 0.23 0.02 0.00 0.00 0.00 0.00 0.01 0.01 0.04 0.20 0.39 0.38 0.22 0.17 0.28 0.26 0.18 0.08 0.02 0.03 0.07 0.06 0.01 0.03 0.02 0.01 0.01 0.02 0.02 0.04 0.09 0.13
0.05 0.04 0.03 0.02 0.03 0.05 0.01 0.01 0.04 0.10 0.10 0.26 0.10 0.01 0.00 0.00 0.00 0.00 0.01 0.02 0.08 0.26 0.51 0.45 0.23 0.24 0.47 0.52 0.31 0.06 0.00 0.00 0.01 0.02 0.06 0.06 0.01 0.02 0.01 0.02 0.01 0.02 0.05 0.07
0.02 0.01 0.02 0.02 0.05 0.04 0.03 0.03 0.04 0.12 0.15 0.16 0.15 0.03 0.01 0.00 0.01 0.01 0.01 0.03 0.19 0.48 0.50 0.38 0.21 0.26 0.41 0.52 0.15 0.02 0.01 0.01 0.01 0.02 0.03 0.07 0.06 0.11 0.11 0.08 0.06 0.04 0.04 0.09
0.01 0.00 0.01 0.00 0.01 0.01 0.01 0.01 0.03 0.11 0.20 0.24 0.21 0.13 0.05 0.02 0.02 0.03 0.06 0.17 0.42 0.42 0.41 0.36 0.40 0.50 0.55 0.39 0.15 0.06 0.06 0.12 0.10 0.06 0.07 0.09 0.09 0.08 0.10 0.14 0.19 0.25 0.31 0.36
0.00 0.01 0.00 0.01 0.02 0.04 0.02 0.04 0.12 0.22 0.46 0.51 0.29 0.15 0.08 0.01 0.02 0.07 0.13 0.23 0.48 0.68 0.60 0.49 0.46 0.43 0.29 0.23 0.19 0.18 0.15 0.15 0.19 0.23 0.23 0.20 0.18 0.24 0.31 0.34 0.37 0.38 0.45 0.52
0.01 0.03 0.04 0.02 0.02 0.03 0.06 0.08 0.12 0.14 0.19 0.16 0.12 0.09 0.04 0.01 0.07 0.13 0.22 0.37 0.44 0.47 0.41 0.40 0.33 0.24 0.20 0.18 0.18 0.19 0.20 0.22 0.25 0.32 0.36 0.42 0.48 0.48 0.46 0.48 0.51 0.53 0.52 0.51
0.03 0.06 0.03 0.01 0.02 0.03 0.06 0.09 0.13 0.15 0.13 0.08 0.08 0.02 0.01 0.02 0.14 0.28 0.33 0.35 0.32 0.34 0.27 0.27 0.20 0.19 0.24 0.27 0.28 0.29 0.32 0.34 0.34 0.38 0.41 0.46 0.47 0.50 0.47 0.49 0.51 0.50 0.48 0.45
0.00 0.01 0.00 0.00 0.00 0.01 0.02 0.04 0.04 0.05 0.05 0.09 0.09 0.05 0.03 0.06 0.20 0.30 0.24 0.22 0.25 0.22 0.16 0.18 0.23 0.26 0.27 0.34 0.38 0.43 0.45 0.45 0.44 0.45 0.48 0.47 0.50 0.51 0.45 0.47 0.50 0.45 0.39 0.43
0.00 0.00 0.00 0.00 0.01 0.05 0.06 0.10 0.11 0.07 0.08 0.08 0.10 0.11 0.11 0.18 0.19 0.18 0.18 0.18 0.11 0.10 0.11 0.18 0.23 0.29 0.32 0.35 0.41 0.42 0.43 0.46 0.44 0.48 0.47 0.45 0.42 0.45 0.44 0.39 0.41 0.33 0.31 0.38
0.00 0.00 0.00 0.02 0.06 0.05 0.03 0.03 0.03 0.04 0.06 0.08 0.10 0.13 0.18 0.12 0.11 0.08 0.10 0.07 0.08 0.11 0.16 0.20 0.26 0.31 0.34 0.32 0.32 0.33 0.33 0.34 0.32 0.36 0.32 0.33 0.34 0.28 0.27 0.30 0.30 0.26 0.25 0.24
0.00 0.00 0.01 0.03 0.01 0.00 0.00 0.00 0.00 0.00 0.02 0.08 0.09 0.07 0.05 0.05 0.06 0.04 0.07 0.07 0.11 0.16 0.21 0.23 0.24 0.25 0.28 0.29 0.29 0.29 0.29 0.27 0.26 0.23 0.21 0.19 0.17 0.17 0.20 0.20 0.18 0.18 0.18 0.17
0.00 0.02 0.02 0.03 0.02 0.01 0.00 0.00 0.00 0.00 0.02 0.01 0.01 0.01 0.02 0.05 0.02 0.05 0.08 0.12 0.17 0.19 0.19 0.20 0.23 0.23 0.22 0.21 0.20 0.18 0.15 0.11 0.08 0.07 0.05 0.05 0.05 0.06 0.07 0.07 0.09 0.09 0.10 0.10

GFSNW_prec_precacc24_300.txt.gz
Total_Precipitation_Accumulation
0.03 0.04 0.05 0.08 0.12 0.16 0.11 0.07 0.08 0.00 0.00 0.01 0.11 0.32 0.37 0.12 0.03 0.03 0.13 0.11 0.15 0.17 0.14 0.17 0.13 0.07 0.11 0.15 0.25 0.12 0.22 0.31 0.17 0.10 0.03 0.02 0.01 0.01 0.00 0.01 0.00 0.00 0.00 0.00
0.05 0.05 0.07 0.10 0.14 0.29 0.32 0.45 0.09 0.00 0.02 0.06 0.11 0.19 0.18 0.23 0.19 0.14 0.28 0.25 0.24 0.18 0.15 0.41 0.17 0.26 0.21 0.12 0.16 0.28 0.25 0.41 0.29 0.26 0.29 0.15 0.08 0.03 0.01 0.00 0.00 0.00 0.00 0.00
0.07 0.08 0.09 0.11 0.14 0.28 0.40 0.48 0.20 0.01 0.01 0.06 0.14 0.17 0.05 0.07 0.13 0.32 0.22 0.26 0.28 0.28 0.18 0.20 0.43 0.30 0.36 0.31 0.20 0.27 0.62 0.36 0.17 0.18 0.32 0.40 0.32 0.17 0.12 0.03 0.01 0.00 0.00 0.00
0.08 0.10 0.09 0.11 0.17 0.33 0.51 0.57 0.26 0.07 0.04 0.01 0.03 0.12 0.14 0.07 0.19 0.18 0.26 0.24 0.19 0.35 0.41 0.16 0.18 0.25 0.28 0.24 0.44 0.35 0.47 0.25 0.10 0.03 0.02 0.09 0.18 0.19 0.13 0.10 0.02 0.01 0.00 0.00
0.07 0.10 0.11 0.13 0.19 0.30 0.46 0.54 0.43 0.34 0.13 0.01 0.02 0.06 0.14 0.10 0.19 0.14 0.19 0.23 0.14 0.15 0.28 0.31 0.29 0.25 0.25 0.30 0.38 0.47 0.48 0.31 0.24 0.19 0.11 0.11 0.13 0.12 0.14 0.08 0.04 0.06 0.04 0.02
0.07 0.11 0.12 0.14 0.21 0.39 0.81 0.57 0.48 0.63 0.21 0.02 0.07 0.07 0.14 0.13 0.13 0.06 0.04 0.03 0.08 0.05 0.06 0.08 0.05 0.06 0.30 0.46 0.38 0.41 0.55 0.51 0.54 0.41 0.29 0.30 0.29 0.29 0.25 0.28 0.33 0.27 0.25 0.15
0.08 0.12 0.14 0.16 0.21 0.43 0.74 0.76 0.69 0.77 0.27 0.03 0.03 0.04 0.08 0.07 0.04 0.07 0.00 0.00 0.03 0.01 0.02 0.04 0.01 0.03 0.26 0.29 0.31 0.29 0.39 0.44 0.51 0.72 0.72 1.01 0.65 0.28 0.35 0.34 0.35 0.36 0.23 0.08
0.07 0.09 0.13 0.16 0.20 0.33 0.55 0.62 0.66 0.71 0.34 0.02 0.01 0.05 0.05 0.00 0.00 0.00 0.00 0.00 0.00 0.01 0.02 0.08 0.08 0.09 0.13 0.08 0.13 0.25 0.42 0.44 0.56 0.73 0.84 0.87 0.52 0.44 0.53 0.49 0.45 0.34 0.27 0.12
0.08 0.11 0.13 0.15 0.19 0.31 0.50 0.58 0.47 0.63 0.55 0.07 0.03 0.04 0.01 0.02 0.01 0.01 0.00 0.00 0.00 0.03 0.09 0.18 0.29 0.25 0.21 0.18 0.08 0.05 0.12 0.39 0.75 0.82 0.76 0.67 0.55 0.63 0.71 0.34 0.35 0.30 0.24 0.16
0.09 0.12 0.13 0.11 0.17 0.34 0.43 0.35 0.31 0.52 0.53 0.04 0.00 0.02 0.03 0.02 0.05 0.04 0.00 0.00 0.02 0.05 0.07 0.11 0.14 0.19 0.18 0.29 0.31 0.23 0.20 0.27 0.50 0.56 0.66 0.54 0.47 0.42 0.60 0.66 0.56 0.36 0.40 0.27
0.10 0.09 0.10 0.17 0.23 0.22 0.26 0.22 0.20 0.54 0.56 0.06 0.00 0.00 0.00 0.01 0.03 0.07 0.02 0.07 0.02 0.08 0.18 0.26 0.15 0.24 0.27 0.23 0.31 0.50 0.45 0.44 0.41 0.45 0.63 0.49 0.22 0.23 0.55 0.67 0.36 0.36 0.36 0.37
0.07 0.06 0.09 0.12 0.15 0.15 0.23 0.21 0.11 0.25 0.45 0.08 0.00 0.00 0.00 0.00 0.00 0.05 0.06 0.07 0.08 0.15 0.20 0.24 0.23 0.23 0.19 0.26 0.28 0.27 0.57 0.67 0.77 0.60 0.73 0.66 0.51 0.63 0.62 0.44 0.25 0.16 0.18 0.23
0.05 0.05 0.07 0.11 0.11 0.11 0.21 0.23 0.15 0.19 0.25 0.10 0.01 0.00 0.00 0.00 0.00 0.00 0.07 0.02 0.04 0.07 0.17 0.34 0.26 0.18 0.21 0.12 0.09 0.17 0.29 0.33 0.26 0.25 0.20 0.12 0.35 0.33 0.23 0.26 0.24 0.19 0.12 0.13
0.03 0.03 0.06 0.07 0.06 0.11 0.19 0.21 0.22 0.35 0.45 0.25 0.01 0.00 0.00 0.00 0.00 0.00 0.00 0.00 0.03 0.11 0.23 0.43 0.36 0.21 0.13 0.11 0.10 0.11 0.09 0.06 0.05 0.05 0.05 0.03 0.09 0.07 0.13 0.11 0.12 0.13 0.10 0.11
0.03 0.04 0.04 0.05 0.05 0.07 0.05 0.13 0.17 0.29 0.54 0.43 0.02 0.00 0.00 0.00 0.00 0.00 0.00 0.00 0.03 0.10 0.33 0.37 0.25 0.16 0.16 0.09 0.07 0.09 0.08 0.12 0.10 0.04 0.02 0.09 0.03 0.02 0.04 0.02 0.02 0.04 0.07 0.13
0.04 0.05 0.03 0.03 0.04 0.05 0.01 0.00 0.01 0.03 0.11 0.16 0.03 0.00 0.00 0.00 0.00 0.00 0.01 0.01 0.04 0.21 0.34 0.31 0.21 0.17 0.27 0.18 0.11 0.07 0.03 0.04 0.08 0.07 0.01 0.04 0.02 0.01 0.01 0.02 0.02 0.04 0.10 0.14
0.03 0.02 0.02 0.02 0.03 0.04 0.01 0.01 0.04 0.10 0.10 0.18 0.04 0.00 0.00 0.00 0.00 0.00 0.01 0.02 0.06 0.21 0.40 0.30 0.20 0.23 0.44 0.44 0.26 0.06 0.01 0.00 0.00 0.02 0.06 0.05 0.01 0.02 0.01 0.02 0.01 0.02 0.05 0.07
0.01 0.00 0.01 0.01 0.04 0.03 0.03 0.03 0.04 0.10 0.11 0.08 0.04 0.01 0.00 0.00 0.01 0.00 0.00 0.02 0.16 0.41 0.43 0.35 0.21 0.24 0.36 0.39 0.11 0.02 0.01 0.00 0.00 0.01 0.03 0.06 0.05 0.10 0.11 0.08 0.06 0.04 0.04 0.07
0.00 0.00 0.00 0.00 0.01 0.01 0.01 0.00 0.03 0.08 0.15 0.08 0.09 0.10 0.04 0.01 0.01 0.00 0.02 0.11 0.33 0.32 0.34 0.34 0.36 0.38 0.36 0.24 0.10 0.04 0.04 0.10 0.09 0.03 0.05 0.07 0.06 0.07 0.09 0.12 0.17 0.20 0.24 0.27
0.00 0.00 0.00 0.00 0.00 0.01 0.01 0.01 0.07 0.15 0.34 0.37 0.22 0.11 0.07 0.01 0.01 0.01 0.05 0.16 0.39 0.51 0.45 0.33 0.29 0.25 0.18 0.16 0.14 0.12 0.09 0.08 0.09 0.10 0.09 0.11 0.11 0.14 0.18 0.25 0.27 0.28 0.33 0.39
0.00 0.01 0.01 0.00 0.00 0.00 0.01 0.03 0.09 0.11 0.15 0.11 0.08 0.07 0.02 0.00 0.03 0.05 0.12 0.27 0.31 0.31 0.20 0.18 0.21 0.15 0.13 0.11 0.09 0.09 0.09 0.10 0.12 0.17 0.19 0.24 0.31 0.31 0.29 0.31 0.36 0.41 0.42 0.44
0.01 0.02 0.01 0.00 0.00 0.00 0.00 0.02 0.04 0.07 0.07 0.04 0.06 0.02 0.00 0.01 0.08 0.19 0.22 0.24 0.20 0.21 0.13 0.13 0.12 0.13 0.16 0.16 0.17 0.18 0.19 0.19 0.18 0.20 0.23 0.27 0.30 0.35 0.37 0.40 0.41 0.42 0.42 0.42
0.00 0.00 0.00 0.00 0.00 0.00 0.00 0.01 0.01 0.02 0.03 0.05 0.06 0.03 0.01 0.04 0.14 0.23 0.16 0.14 0.17 0.13 0.06 0.10 0.17 0.19 0.19 0.22 0.24 0.28 0.31 0.30 0.30 0.30 0.34 0.34 0.37 0.39 0.37 0.38 0.43 0.41 0.38 0.43
0.00 0.00 0.00 0.00 0.00 0.01 0.01 0.02 0.03 0.02 0.03 0.04 0.04 0.05 0.06 0.13 0.15 0.12 0.12 0.12 0.08 0.07 0.06 0.12 0.18 0.21 0.23 0.26 0.30 0.30 0.30 0.32 0.32 0.36 0.36 0.35 0.34 0.37 0.37 0.36 0.40 0.33 0.32 0.38
0.00 0.00 0.00 0.01 0.04 0.03 0.01 0.00 0.00 0.00 0.02 0.04 0.04 0.05 0.09 0.06 0.06 0.04 0.06 0.06 0.07 0.09 0.11 0.15 0.19 0.23 0.25 0.24 0.23 0.25 0.24 0.26 0.25 0.29 0.27 0.28 0.31 0.27 0.26 0.30 0.30 0.26 0.26 0.25
0.00 0.00 0.01 0.03 0.02 0.01 0.00 0.00 0.00 0.00 0.01 0.03 0.04 0.03 0.03 0.03 0.03 0.02 0.05 0.06 0.08 0.11 0.14 0.15 0.17 0.17 0.20 0.21 0.22 0.22 0.23 0.22 0.21 0.20 0.19 0.19 0.17 0.18 0.20 0.20 0.18 0.19 0.18 0.17
0.00 0.01 0.02 0.03 0.02 0.00 0.00 0.00 0.00 0.00 0.01 0.01 0.01 0.01 0.02 0.03 0.02 0.04 0.06 0.09 0.12 0.13 0.13 0.15 0.17 0.17 0.16 0.16 0.15 0.15 0.13 0.11 0.09 0.08 0.07 0.06 0.06 0.07 0.07 0.07 0.09 0.09 0.10 0.11

GFSNW_prec_precacc24_303.txt.gz
Total_Precipitation_Accumulation
0.03 0.04 0.05 0.07 0.10 0.14 0.10 0.06 0.07 0.00 0.00 0.00 0.03 0.12 0.20 0.05 0.02 0.02 0.13 0.12 0.16 0.19 0.15 0.18 0.13 0.08 0.12 0.15 0.25 0.13 0.23 0.34 0.19 0.11 0.05 0.05 0.09 0.04 0.02 0.02 0.01 0.00 0.00 0.00
0.04 0.04 0.05 0.08 0.12 0.25 0.28 0.44 0.09 0.00 0.00 0.04 0.08 0.08 0.02 0.02 0.05 0.08 0.24 0.22 0.24 0.20 0.17 0.44 0.17 0.27 0.21 0.12 0.16 0.29 0.25 0.43 0.35 0.35 0.33 0.20 0.23 0.24 0.09 0.02 0.01 0.00 0.00 0.00
0.04 0.05 0.06 0.08 0.12 0.23 0.34 0.45 0.19 0.01 0.00 0.01 0.07 0.07 0.02 0.00 0.02 0.11 0.14 0.18 0.24 0.25 0.15 0.19 0.42 0.31 0.37 0.31 0.20 0.27 0.64 0.37 0.21 0.27 0.46 0.50 0.40 0.25 0.17 0.08 0.06 0.01 0.00 0.00
0.05 0.07 0.06 0.08 0.14 0.27 0.44 0.54 0.25 0.07 0.04 0.01 0.02 0.08 0.07 0.04 0.07 0.05 0.08 0.13 0.13 0.27 0.31 0.12 0.13 0.23 0.28 0.23 0.45 0.35 0.47 0.26 0.10 0.05 0.08 0.13 0.20 0.22 0.17 0.12 0.04 0.07 0.02 0.00
0.04 0.06 0.06 0.08 0.15 0.22 0.34 0.51 0.42 0.34 0.14 0.01 0.02 0.05 0.10 0.07 0.09 0.08 0.04 0.09 0.03 0.04 0.14 0.21 0.26 0.24 0.22 0.23 0.35 0.46 0.48 0.31 0.25 0.25 0.16 0.12 0.14 0.15 0.17 0.10 0.06 0.07 0.04 0.02
0.04 0.06 0.07 0.08 0.16 0.31 0.65 0.54 0.48 0.61 0.21 0.02 0.07 0.06 0.11 0.11 0.13 0.04 0.00 0.00 0.01 0.02 0.02 0.02 0.02 0.05 0.20 0.31 0.30 0.32 0.53 0.52 0.57 0.45 0.31 0.32 0.30 0.33 0.29 0.32 0.38 0.29 0.27 0.16
0.05 0.07 0.10 0.11 0.15 0.33 0.56 0.69 0.68 0.72 0.26 0.03 0.03 0.04 0.08 0.07 0.04 0.07 0.00 0.00 0.00 0.00 0.00 0.00 0.00 0.03 0.23 0.22 0.25 0.23 0.31 0.41 0.54 0.75 0.76 1.03 0.68 0.31 0.38 0.37 0.38 0.40 0.25 0.08
0.05 0.07 0.09 0.10 0.14 0.22 0.34 0.49 0.65 0.67 0.31 0.02 0.01 0.05 0.05 0.00 0.00 0.00 0.00 0.00 0.00 0.00 0.00 0.01 0.01 0.03 0.07 0.04 0.10 0.22 0.38 0.42 0.54 0.73 0.84 0.89 0.55 0.46 0.57 0.52 0.48 0.36 0.28 0.12
0.05 0.07 0.07 0.08 0.11 0.16 0.27 0.44 0.44 0.59 0.47 0.05 0.03 0.04 0.01 0.03 0.01 0.00 0.00 0.00 0.00 0.01 0.01 0.07 0.13 0.12 0.17 0.17 0.06 0.04 0.10 0.33 0.62 0.70 0.74 0.66 0.57 0.64 0.77 0.38 0.38 0.30 0.25 0.17
0.05 0.07 0.08 0.07 0.09 0.18 0.30 0.21 0.25 0.48 0.52 0.04 0.00 0.03 0.04 0.02 0.05 0.04 0.00 0.00 0.00 0.00 0.01 0.05 0.07 0.11 0.09 0.20 0.31 0.23 0.18 0.23 0.37 0.47 0.62 0.54 0.48 0.42 0.61 0.69 0.58 0.36 0.40 0.27
0.06 0.07 0.08 0.08 0.09 0.12 0.16 0.11 0.11 0.48 0.52 0.06 0.00 0.00 0.01 0.02 0.04 0.07 0.02 0.05 0.01 0.04 0.10 0.21 0.09 0.13 0.13 0.06 0.22 0.50 0.45 0.43 0.39 0.42 0.54 0.45 0.22 0.23 0.56 0.68 0.36 0.37 0.36 0.38
0.06 0.06 0.09 0.10 0.10 0.08 0.13 0.13 0.10 0.25 0.40 0.06 0.00 0.00 0.00 0.00 0.00 0.05 0.06 0.06 0.08 0.13 0.14 0.14 0.11 0.05 0.05 0.11 0.12 0.16 0.52 0.66 0.77 0.60 0.73 0.66 0.52 0.63 0.63 0.45 0.26 0.16 0.18 0.23
0.05 0.05 0.06 0.10 0.08 0.07 0.12 0.14 0.12 0.17 0.19 0.05 0.00 0.00 0.00 0.00 0.00 0.00 0.06 0.00 0.05 0.07 0.20 0.31 0.23 0.14 0.14 0.10 0.07 0.07 0.16 0.25 0.17 0.16 0.19 0.12 0.35 0.33 0.23 0.26 0.24 0.19 0.12 0.13
0.03 0.03 0.05 0.06 0.05 0.05 0.06 0.03 0.11 0.31 0.32 0.14 0.00 0.00 0.00 0.00 0.00 0.00 0.00 0.00 0.03 0.11 0.22 0.38 0.27 0.18 0.10 0.08 0.09 0.09 0.06 0.03 0.02 0.02 0.04 0.03 0.09 0.07 0.13 0.11 0.12 0.13 0.10 0.11
0.02 0.02 0.03 0.04 0.03 0.05 0.02 0.01 0.01 0.06 0.28 0.27 0.01 0.00 0.00 0.00 0.00 0.00 0.00 0.00 0.03 0.11 0.29 0.27 0.22 0.16 0.15 0.09 0.06 0.08 0.08 0.12 0.09 0.03 0.02 0.09 0.02 0.02 0.04 0.02 0.02 0.04 0.07 0.13
0.01 0.02 0.02 0.02 0.02 0.04 0.01 0.00 0.01 0.03 0.08 0.14 0.02 0.00 0.00 0.00 0.00 0.00 0.01 0.01 0.03 0.20 0.31 0.27 0.19 0.18 0.27 0.16 0.11 0.08 0.03 0.04 0.08 0.07 0.01 0.03 0.01 0.01 0.02 0.02 0.01 0.03 0.09 0.14
0.01 0.01 0.01 0.01 0.02 0.03 0.01 0.01 0.03 0.09 0.11 0.19 0.04 0.00 0.00 0.00 0.00 0.00 0.01 0.02 0.05 0.19 0.35 0.28 0.20 0.23 0.37 0.34 0.20 0.06 0.01 0.00 0.00 0.01 0.04 0.03 0.00 0.02 0.01 0.02 0.01 0.02 0.05 0.08
0.00 0.00 0.00 0.00 0.03 0.02 0.02 0.01 0.02 0.07 0.09 0.06 0.03 0.00 0.00 0.00 0.01 0.00 0.00 0.01 0.14 0.32 0.36 0.30 0.20 0.22 0.29 0.28 0.09 0.02 0.01 0.01 0.00 0.01 0.02 0.04 0.01 0.01 0.04 0.04 0.03 0.03 0.04 0.07
0.00 0.00 0.00 0.00 0.00 0.00 0.00 0.00 0.01 0.03 0.12 0.06 0.06 0.08 0.03 0.01 0.00 0.00 0.00 0.05 0.22 0.26 0.30 0.31 0.29 0.24 0.18 0.17 0.10 0.05 0.05 0.10 0.09 0.03 0.00 0.01 0.01 0.01 0.04 0.07 0.11 0.16 0.19 0.20
0.00 0.00 0.00 0.00 0.00 0.00 0.00 0.00 0.05 0.08 0.18 0.19 0.14 0.08 0.04 0.00 0.00 0.00 0.01 0.07 0.30 0.37 0.29 0.17 0.12 0.16 0.14 0.15 0.14 0.12 0.10 0.10 0.10 0.09 0.08 0.07 0.04 0.03 0.05 0.11 0.16 0.20 0.23 0.25
0.00 0.00 0.00 0.00 0.00 0.00 0.00 0.00 0.02 0.04 0.07 0.05 0.04 0.04 0.01 0.00 0.02 0.03 0.07 0.17 0.18 0.17 0.10 0.06 0.07 0.07 0.09 0.09 0.09 0.09 0.10 0.10 0.12 0.16 0.16 0.15 0.15 0.12 0.11 0.13 0.17 0.22 0.26 0.32
0.00 0.01 0.01 0.00 0.00 0.00 0.00 0.00 0.00 0.02 0.02 0.02 0.03 0.01 0.00 0.00 0.06 0.15 0.17 0.15 0.10 0.12 0.05 0.03 0.04 0.08 0.11 0.12 0.15 0.15 0.16 0.17 0.15 0.15 0.15 0.15 0.15 0.18 0.18 0.20 0.23 0.28 0.32 0.32
0.00 0.00 0.00 0.00 0.00 0.00 0.00 0.00 0.00 0.00 0.01 0.03 0.03 0.01 0.00 0.01 0.10 0.18 0.10 0.08 0.10 0.07 0.03 0.05 0.10 0.12 0.13 0.16 0.18 0.20 0.24 0.23 0.22 0.20 0.22 0.21 0.22 0.21 0.22 0.24 0.31 0.32 0.31 0.37
0.00 0.00 0.00 0.00 0.00 0.01 0.01 0.01 0.01 0.00 0.01 0.01 0.02 0.02 0.03 0.08 0.10 0.08 0.08 0.08 0.05 0.05 0.05 0.08 0.11 0.14 0.14 0.17 0.21 0.21 0.21 0.23 0.23 0.25 0.25 0.24 0.23 0.26 0.26 0.27 0.32 0.28 0.27 0.34
0.00 0.00 0.00 0.01 0.04 0.03 0.02 0.00 0.00 0.00 0.00 0.01 0.02 0.02 0.05 0.04 0.04 0.04 0.06 0.06 0.07 0.07 0.09 0.11 0.12 0.14 0.16 0.15 0.15 0.17 0.16 0.18 0.18 0.21 0.20 0.21 0.23 0.21 0.21 0.25 0.26 0.23 0.23 0.23
0.00 0.00 0.01 0.03 0.02 0.01 0.00 0.00 0.00 0.00 0.00 0.02 0.03 0.02 0.03 0.03 0.02 0.02 0.05 0.06 0.07 0.10 0.11 0.12 0.12 0.11 0.13 0.14 0.15 0.16 0.16 0.16 0.16 0.16 0.16 0.16 0.15 0.16 0.19 0.18 0.17 0.18 0.18 0.17
0.00 0.02 0.02 0.03 0.02 0.00 0.00 0.00 0.00 0.00 0.01 0.01 0.01 0.01 0.02 0.03 0.03 0.05 0.06 0.09 0.11 0.11 0.11 0.11 0.13 0.14 0.12 0.11 0.11 0.11 0.12 0.11 0.10 0.09 0.08 0.07 0.07 0.07 0.08 0.07 0.10 0.09 0.10 0.11

GFSNW_prec_precacc24_306.txt.gz
Total_Precipitation_Accumulation
0.02 0.03 0.04 0.05 0.07 0.10 0.08 0.06 0.07 0.00 0.00 0.00 0.00 0.05 0.12 0.01 0.00 0.01 0.06 0.05 0.12 0.12 0.10 0.15 0.13 0.09 0.15 0.15 0.27 0.14 0.23 0.37 0.20 0.13 0.09 0.09 0.27 0.08 0.03 0.03 0.01 0.00 0.00 0.00
0.03 0.03 0.04 0.06 0.09 0.18 0.19 0.37 0.09 0.00 0.00 0.01 0.02 0.00 0.00 0.00 0.00 0.00 0.04 0.05 0.09 0.05 0.11 0.37 0.16 0.27 0.21 0.13 0.17 0.31 0.26 0.47 0.37 0.39 0.41 0.27 0.37 0.36 0.14 0.05 0.03 0.00 0.00 0.00
0.04 0.04 0.04 0.05 0.07 0.16 0.20 0.30 0.17 0.01 0.00 0.00 0.04 0.07 0.02 0.00 0.00 0.01 0.01 0.02 0.04 0.04 0.07 0.14 0.30 0.30 0.37 0.31 0.21 0.27 0.64 0.40 0.27 0.32 0.53 0.56 0.45 0.33 0.19 0.12 0.12 0.02 0.01 0.00
0.04 0.05 0.04 0.06 0.09 0.16 0.11 0.27 0.21 0.07 0.04 0.01 0.03 0.09 0.07 0.04 0.05 0.02 0.00 0.01 0.01 0.06 0.12 0.05 0.06 0.16 0.25 0.23 0.45 0.33 0.41 0.25 0.13 0.11 0.10 0.14 0.21 0.25 0.22 0.15 0.08 0.10 0.04 0.02
0.04 0.05 0.05 0.06 0.10 0.15 0.07 0.26 0.38 0.33 0.13 0.01 0.02 0.05 0.10 0.07 0.07 0.07 0.01 0.01 0.00 0.00 0.06 0.10 0.08 0.06 0.11 0.16 0.30 0.45 0.44 0.28 0.27 0.30 0.18 0.13 0.14 0.15 0.19 0.17 0.11 0.11 0.08 0.05
0.04 0.05 0.06 0.07 0.12 0.20 0.32 0.30 0.40 0.59 0.19 0.02 0.07 0.06 0.12 0.11 0.13 0.04 0.00 0.00 0.00 0.00 0.00 0.00 0.00 0.02 0.15 0.22 0.24 0.26 0.47 0.50 0.58 0.45 0.32 0.35 0.30 0.35 0.31 0.35 0.44 0.34 0.31 0.18
0.05 0.06 0.08 0.09 0.11 0.23 0.30 0.30 0.42 0.53 0.20 0.03 0.03 0.04 0.08 0.07 0.04 0.06 0.00 0.00 0.00 0.00 0.00 0.00 0.00 0.03 0.23 0.22 0.24 0.21 0.27 0.38 0.47 0.66 0.77 0.97 0.67 0.31 0.39 0.38 0.40 0.43 0.28 0.09
0.06 0.06 0.08 0.09 0.11 0.17 0.19 0.17 0.37 0.55 0.31 0.02 0.01 0.05 0.05 0.00 0.00 0.00 0.00 0.00 0.00 0.00 0.00 0.00 0.00 0.02 0.04 0.03 0.10 0.22 0.37 0.40 0.45 0.63 0.77 0.84 0.56 0.47 0.58 0.53 0.50 0.38 0.29 0.12
0.06 0.07 0.08 0.08 0.10 0.14 0.15 0.10 0.20 0.45 0.42 0.04 0.03 0.04 0.01 0.03 0.01 0.00 0.00 0.00 0.00 0.00 0.00 0.01 0.03 0.06 0.03 0.05 0.02 0.03 0.10 0.32 0.60 0.62 0.64 0.58 0.57 0.65 0.80 0.39 0.39 0.31 0.25 0.17
0.07 0.07 0.09 0.08 0.09 0.12 0.14 0.06 0.11 0.33 0.42 0.03 0.01 0.04 0.07 0.03 0.06 0.04 0.00 0.00 0.00 0.00 0.00 0.04 0.06 0.09 0.04 0.04 0.07 0.12 0.14 0.17 0.28 0.43 0.57 0.53 0.48 0.42 0.62 0.69 0.59 0.36 0.40 0.28
0.08 0.07 0.08 0.09 0.08 0.10 0.13 0.06 0.04 0.27 0.37 0.05 0.00 0.00 0.01 0.03 0.05 0.07 0.02 0.05 0.01 0.04 0.05 0.17 0.06 0.06 0.01 0.03 0.11 0.25 0.25 0.34 0.33 0.37 0.45 0.42 0.22 0.23 0.56 0.68 0.36 0.37 0.36 0.38
0.08 0.06 0.08 0.09 0.10 0.08 0.11 0.07 0.04 0.17 0.40 0.06 0.00 0.00 0.00 0.00 0.00 0.05 0.06 0.06 0.09 0.13 0.15 0.11 0.07 0.03 0.04 0.02 0.06 0.07 0.27 0.36 0.46 0.39 0.66 0.66 0.52 0.63 0.63 0.45 0.26 0.16 0.19 0.23
0.06 0.06 0.06 0.07 0.07 0.06 0.10 0.07 0.04 0.09 0.09 0.03 0.00 0.00 0.00 0.00 0.00 0.01 0.06 0.00 0.05 0.07 0.22 0.31 0.20 0.14 0.10 0.06 0.07 0.06 0.09 0.11 0.06 0.06 0.17 0.12 0.35 0.33 0.23 0.26 0.24 0.19 0.12 0.13
0.05 0.03 0.04 0.05 0.04 0.04 0.05 0.04 0.03 0.04 0.09 0.10 0.00 0.00 0.00 0.00 0.00 0.00 0.00 0.00 0.03 0.11 0.21 0.36 0.26 0.20 0.10 0.07 0.05 0.03 0.03 0.02 0.02 0.01 0.03 0.02 0.09 0.07 0.12 0.11 0.12 0.13 0.10 0.11
0.03 0.02 0.02 0.02 0.02 0.03 0.02 0.01 0.00 0.01 0.06 0.07 0.00 0.00 0.00 0.00 0.00 0.00 0.00 0.00 0.03 0.10 0.27 0.25 0.24 0.16 0.16 0.09 0.06 0.08 0.07 0.10 0.07 0.02 0.01 0.07 0.02 0.02 0.04 0.03 0.02 0.04 0.08 0.14
0.01 0.01 0.01 0.01 0.01 0.02 0.01 0.01 0.01 0.04 0.08 0.15 0.02 0.00 0.00 0.00 0.00 0.00 0.01 0.01 0.03 0.18 0.28 0.26 0.20 0.19 0.28 0.16 0.11 0.08 0.03 0.04 0.07 0.06 0.01 0.03 0.01 0.01 0.02 0.02 0.01 0.03 0.09 0.13
0.00 0.00 0.00 0.00 0.02 0.02 0.01 0.01 0.03 0.08 0.12 0.20 0.05 0.00 0.00 0.00 0.00 0.00 0.00 0.01 0.05 0.17 0.32 0.26 0.21 0.24 0.30 0.26 0.17 0.05 0.01 0.01 0.00 0.01 0.04 0.03 0.01 0.01 0.00 0.02 0.01 0.02 0.04 0.07
0.00 0.00 0.00 0.00 0.04 0.01 0.01 0.00 0.00 0.04 0.09 0.06 0.03 0.00 0.00 0.00 0.00 0.00 0.00 0.01 0.12 0.24 0.30 0.26 0.19 0.15 0.18 0.16 0.06 0.03 0.02 0.01 0.01 0.01 0.02 0.04 0.01 0.01 0.01 0.01 0.01 0.01 0.02 0.05
0.00 0.00 0.00 0.00 0.00 0.00 0.00 0.00 0.02 0.00 0.06 0.07 0.06 0.07 0.02 0.00 0.00 0.00 0.00 0.04 0.22 0.20 0.14 0.15 0.11 0.08 0.09 0.12 0.10 0.05 0.06 0.10 0.09 0.03 0.00 0.01 0.01 0.01 0.01 0.01 0.02 0.03 0.05 0.08
0.00 0.00 0.00 0.00 0.00 0.00 0.00 0.00 0.05 0.03 0.07 0.08 0.08 0.05 0.01 0.00 0.00 0.00 0.00 0.04 0.22 0.21 0.12 0.05 0.03 0.09 0.12 0.14 0.15 0.13 0.10 0.10 0.10 0.09 0.07 0.06 0.03 0.03 0.04 0.06 0.07 0.09 0.11 0.13
0.00 0.00 0.00 0.00 0.00 0.00 0.00 0.00 0.00 0.00 0.01 0.01 0.02 0.01 0.00 0.00 0.01 0.02 0.05 0.12 0.11 0.11 0.06 0.04 0.03 0.05 0.07 0.08 0.09 0.09 0.10 0.11 0.12 0.15 0.15 0.15 0.15 0.11 0.09 0.08 0.10 0.11 0.13 0.17
0.00 0.01 0.01 0.00 0.00 0.00 0.00 0.00 0.00 0.00 0.00 0.01 0.01 0.00 0.00 0.00 0.04 0.11 0.13 0.10 0.07 0.09 0.04 0.03 0.04 0.07 0.09 0.10 0.11 0.12 0.13 0.14 0.13 0.13 0.13 0.13 0.12 0.15 0.14 0.13 0.13 0.15 0.17 0.19
0.00 0.00 0.00 0.00 0.00 0.00 0.00 0.00 0.00 0.00 0.01 0.01 0.00 0.00 0.00 0.01 0.06 0.13 0.06 0.07 0.08 0.06 0.04 0.05 0.09 0.10 0.10 0.12 0.12 0.12 0.15 0.15 0.15 0.15 0.17 0.17 0.16 0.14 0.14 0.15 0.18 0.19 0.18 0.23
0.00 0.00 0.00 0.00 0.00 0.01 0.01 0.01 0.01 0.00 0.00 0.00 0.00 0.01 0.01 0.03 0.05 0.05 0.06 0.08 0.06 0.07 0.05 0.08 0.11 0.11 0.11 0.12 0.13 0.12 0.12 0.14 0.15 0.16 0.18 0.17 0.16 0.16 0.14 0.16 0.19 0.16 0.18 0.24
0.00 0.00 0.00 0.01 0.04 0.03 0.02 0.01 0.00 0.00 0.00 0.01 0.01 0.02 0.03 0.03 0.04 0.04 0.05 0.06 0.07 0.08 0.10 0.11 0.11 0.11 0.12 0.10 0.09 0.10 0.10 0.11 0.13 0.15 0.15 0.16 0.17 0.15 0.14 0.17 0.18 0.17 0.18 0.18
0.00 0.00 0.01 0.03 0.02 0.01 0.00 0.00 0.00 0.00 0.00 0.02 0.02 0.02 0.03 0.03 0.03 0.03 0.05 0.07 0.08 0.10 0.11 0.11 0.11 0.09 0.09 0.10 0.10 0.11 0.12 0.12 0.12 0.12 0.12 0.13 0.11 0.12 0.15 0.15 0.14 0.15 0.16 0.16
0.00 0.02 0.02 0.03 0.02 0.00 0.00 0.00 0.00 0.00 0.01 0.01 0.01 0.01 0.03 0.03 0.04 0.06 0.07 0.09 0.11 0.11 0.10 0.10 0.12 0.12 0.10 0.09 0.08 0.09 0.09 0.09 0.09 0.09 0.08 0.08 0.07 0.07 0.08 0.07 0.09 0.09 0.10 0.12

GFSNW_prec_precacc24_312.txt.gz
Total_Precipitation_Accumulation
0.03 0.03 0.03 0.03 0.04 0.04 0.00 0.00 0.00 0.00 0.00 0.00 0.00 0.00 0.00 0.00 0.00 0.00 0.00 0.01 0.03 0.07 0.05 0.05 0.02 0.04 0.07 0.02 0.10 0.12 0.27 0.42 0.22 0.17 0.21 0.23 0.35 0.12 0.10 0.21 0.17 0.06 0.01 0.06
0.04 0.03 0.03 0.03 0.05 0.09 0.02 0.00 0.00 0.00 0.00 0.01 0.02 0.00 0.00 0.00 0.00 0.00 0.00 0.00 0.02 0.04 0.04 0.16 0.01 0.01 0.00 0.00 0.07 0.19 0.21 0.40 0.33 0.36 0.49 0.29 0.45 0.40 0.16 0.07 0.18 0.12 0.01 0.03
0.06 0.05 0.04 0.05 0.04 0.09 0.01 0.00 0.00 0.00 0.00 0.00 0.04 0.06 0.02 0.00 0.00 0.00 0.00 0.00 0.01 0.03 0.01 0.02 0.03 0.02 0.02 0.00 0.02 0.13 0.43 0.31 0.32 0.32 0.59 0.62 0.48 0.36 0.21 0.14 0.21 0.17 0.03 0.01
0.06 0.06 0.04 0.06 0.07 0.09 0.01 0.02 0.03 0.05 0.02 0.01 0.02 0.06 0.04 0.03 0.05 0.01 0.00 0.00 0.00 0.06 0.11 0.03 0.00 0.00 0.02 0.00 0.01 0.10 0.21 0.20 0.17 0.12 0.14 0.17 0.25 0.29 0.28 0.19 0.16 0.20 0.10 0.04
0.07 0.06 0.06 0.07 0.08 0.09 0.02 0.10 0.20 0.18 0.05 0.00 0.02 0.02 0.03 0.07 0.07 0.07 0.01 0.01 0.00 0.00 0.04 0.08 0.06 0.05 0.09 0.06 0.02 0.03 0.09 0.14 0.27 0.30 0.19 0.11 0.15 0.20 0.28 0.25 0.19 0.21 0.17 0.09
0.07 0.07 0.08 0.09 0.09 0.13 0.16 0.17 0.27 0.35 0.05 0.00 0.03 0.02 0.10 0.11 0.13 0.05 0.00 0.00 0.00 0.00 0.00 0.00 0.00 0.02 0.15 0.22 0.21 0.10 0.09 0.18 0.38 0.38 0.33 0.29 0.18 0.40 0.39 0.48 0.57 0.46 0.40 0.27
0.08 0.09 0.10 0.14 0.12 0.18 0.19 0.19 0.31 0.31 0.07 0.00 0.00 0.01 0.05 0.07 0.04 0.07 0.00 0.00 0.00 0.00 0.00 0.00 0.00 0.03 0.22 0.22 0.24 0.18 0.15 0.18 0.31 0.49 0.61 0.78 0.66 0.36 0.44 0.44 0.52 0.55 0.37 0.15
0.07 0.08 0.11 0.15 0.15 0.18 0.14 0.13 0.32 0.32 0.16 0.00 0.00 0.01 0.02 0.00 0.00 0.00 0.00 0.00 0.00 0.00 0.00 0.00 0.00 0.02 0.02 0.02 0.10 0.20 0.28 0.23 0.25 0.52 0.64 0.75 0.56 0.48 0.62 0.58 0.55 0.45 0.32 0.16
0.07 0.09 0.12 0.13 0.13 0.23 0.15 0.09 0.16 0.30 0.28 0.01 0.00 0.01 0.01 0.03 0.01 0.00 0.00 0.00 0.00 0.00 0.00 0.01 0.02 0.05 0.02 0.02 0.01 0.02 0.04 0.13 0.24 0.37 0.41 0.46 0.52 0.64 0.80 0.41 0.42 0.32 0.26 0.18
0.08 0.09 0.11 0.10 0.17 0.20 0.15 0.07 0.09 0.29 0.33 0.02 0.01 0.04 0.08 0.05 0.07 0.04 0.00 0.00 0.00 0.00 0.00 0.01 0.02 0.03 0.00 0.02 0.03 0.04 0.02 0.04 0.12 0.30 0.42 0.40 0.41 0.39 0.57 0.61 0.53 0.34 0.40 0.28
0.08 0.09 0.09 0.11 0.22 0.12 0.11 0.05 0.03 0.19 0.26 0.03 0.00 0.00 0.03 0.07 0.10 0.11 0.02 0.02 0.01 0.04 0.02 0.04 0.02 0.02 0.00 0.03 0.07 0.12 0.08 0.03 0.05 0.16 0.28 0.25 0.11 0.12 0.38 0.50 0.30 0.33 0.36 0.38
0.08 0.07 0.09 0.17 0.13 0.07 0.07 0.06 0.03 0.11 0.23 0.04 0.00 0.00 0.01 0.01 0.01 0.08 0.06 0.03 0.08 0.13 0.15 0.11 0.07 0.03 0.04 0.03 0.04 0.03 0.06 0.03 0.10 0.13 0.27 0.27 0.21 0.27 0.25 0.16 0.10 0.06 0.14 0.22
0.06 0.07 0.13 0.11 0.08 0.04 0.05 0.05 0.03 0.09 0.07 0.01 0.00 0.00 0.00 0.00 0.00 0.01 0.05 0.00 0.05 0.07 0.22 0.31 0.18 0.12 0.09 0.06 0.05 0.04 0.01 0.00 0.02 0.02 0.10 0.04 0.15 0.10 0.01 0.00 0.00 0.01 0.02 0.08
0.07 0.09 0.07 0.06 0.05 0.02 0.03 0.03 0.03 0.04 0.03 0.03 0.00 0.00 0.00 0.00 0.00 0.00 0.00 0.00 0.02 0.10 0.21 0.33 0.24 0.21 0.12 0.09 0.06 0.03 0.02 0.01 0.01 0.01 0.01 0.02 0.03 0.00 0.00 0.00 0.00 0.00 0.00 0.02
0.07 0.04 0.03 0.04 0.01 0.02 0.01 0.01 0.00 0.01 0.04 0.04 0.00 0.00 0.00 0.00 0.00 0.00 0.00 0.00 0.03 0.07 0.16 0.21 0.26 0.20 0.18 0.12 0.04 0.05 0.05 0.08 0.06 0.04 0.02 0.04 0.01 0.00 0.00 0.01 0.00 0.01 0.03 0.04
0.02 0.02 0.02 0.01 0.00 0.01 0.01 0.01 0.01 0.04 0.09 0.20 0.03 0.01 0.00 0.00 0.00 0.00 0.00 0.00 0.03 0.12 0.19 0.24 0.21 0.19 0.29 0.18 0.07 0.08 0.04 0.04 0.08 0.07 0.03 0.03 0.01 0.00 0.00 0.01 0.01 0.01 0.04 0.05
0.00 0.01 0.00 0.00 0.02 0.02 0.01 0.00 0.02 0.05 0.11 0.23 0.06 0.01 0.00 0.00 0.00 0.00 0.00 0.01 0.05 0.12 0.22 0.18 0.13 0.11 0.13 0.11 0.09 0.07 0.04 0.04 0.05 0.04 0.04 0.03 0.02 0.03 0.01 0.01 0.01 0.01 0.01 0.02
0.00 0.00 0.00 0.01 0.04 0.01 0.01 0.00 0.00 0.03 0.08 0.07 0.04 0.00 0.00 0.00 0.00 0.00 0.00 0.01 0.08 0.05 0.07 0.07 0.05 0.03 0.04 0.07 0.07 0.06 0.04 0.03 0.04 0.03 0.05 0.07 0.04 0.02 0.01 0.01 0.01 0.01 0.00 0.01
0.00 0.00 0.00 0.00 0.00 0.00 0.00 0.00 0.02 0.00 0.03 0.07 0.04 0.02 0.00 0.00 0.00 0.00 0.00 0.02 0.10 0.06 0.03 0.04 0.03 0.03 0.07 0.13 0.10 0.07 0.09 0.12 0.11 0.05 0.03 0.03 0.03 0.02 0.02 0.02 0.02 0.03 0.02 0.03
0.00 0.00 0.00 0.00 0.00 0.00 0.00 0.00 0.05 0.01 0.00 0.00 0.02 0.01 0.00 0.00 0.00 0.00 0.00 0.04 0.10 0.09 0.09 0.03 0.01 0.07 0.10 0.12 0.15 0.14 0.12 0.11 0.10 0.08 0.07 0.07 0.04 0.03 0.04 0.06 0.07 0.08 0.07 0.06
0.00 0.00 0.00 0.00 0.00 0.00 0.00 0.00 0.00 0.00 0.00 0.00 0.00 0.01 0.00 0.00 0.00 0.01 0.03 0.05 0.07 0.13 0.09 0.05 0.04 0.06 0.08 0.08 0.09 0.10 0.11 0.11 0.12 0.14 0.14 0.14 0.14 0.10 0.07 0.06 0.06 0.06 0.06 0.08
0.00 0.01 0.01 0.00 0.00 0.00 0.00 0.00 0.00 0.00 0.01 0.01 0.00 0.00 0.00 0.00 0.02 0.05 0.04 0.06 0.10 0.12 0.09 0.04 0.05 0.09 0.09 0.09 0.09 0.09 0.10 0.10 0.09 0.10 0.10 0.09 0.10 0.12 0.11 0.09 0.08 0.08 0.09 0.08
0.00 0.00 0.00 0.00 0.00 0.00 0.00 0.00 0.00 0.00 0.01 0.01 0.00 0.00 0.00 0.01 0.04 0.05 0.05 0.09 0.10 0.10 0.05 0.06 0.11 0.11 0.09 0.09 0.09 0.07 0.08 0.08 0.08 0.07 0.08 0.08 0.08 0.08 0.09 0.08 0.09 0.09 0.08 0.10
0.00 0.00 0.00 0.00 0.00 0.01 0.02 0.02 0.03 0.01 0.00 0.00 0.01 0.01 0.01 0.02 0.04 0.06 0.08 0.11 0.07 0.10 0.07 0.10 0.13 0.11 0.09 0.09 0.08 0.07 0.06 0.06 0.06 0.07 0.07 0.07 0.06 0.07 0.07 0.08 0.09 0.08 0.08 0.10
0.00 0.00 0.01 0.01 0.02 0.03 0.02 0.01 0.01 0.00 0.00 0.01 0.02 0.02 0.03 0.04 0.05 0.06 0.07 0.08 0.09 0.10 0.12 0.13 0.12 0.10 0.09 0.08 0.07 0.07 0.06 0.07 0.07 0.07 0.06 0.07 0.07 0.06 0.06 0.07 0.09 0.08 0.09 0.08
0.00 0.01 0.01 0.01 0.02 0.01 0.00 0.00 0.00 0.00 0.01 0.02 0.02 0.03 0.04 0.05 0.04 0.03 0.06 0.08 0.09 0.11 0.11 0.12 0.10 0.07 0.08 0.08 0.08 0.08 0.09 0.08 0.07 0.07 0.07 0.08 0.07 0.07 0.08 0.07 0.07 0.08 0.09 0.09
0.00 0.01 0.01 0.01 0.01 0.00 0.00 0.00 0.00 0.00 0.01 0.01 0.01 0.02 0.04 0.05 0.04 0.06 0.08 0.10 0.12 0.11 0.10 0.09 0.10 0.13 0.10 0.08 0.07 0.07 0.07 0.07 0.06 0.06 0.05 0.06 0.05 0.04 0.04 0.04 0.06 0.07 0.08 0.09